When you browse on this site, cookies collect data to enhance your experience and personalize the content and advertising you see.
Visit our Privacy Policy to learn more. By continuing to use the site, you agree to this use of cookies and data.
  • In Hungary
  • List of Countries
  • For 7 days
  • Water Temperature
  • Weather Map
  • News
  • Weather Widgets
  • user-avatar
    Login

    Hourly Weather Alandi

    Today, 1 April, Wednesday

    Time Temperature Precipitation Wind Pressure Humidity
    00:00 +29°C° 0 mm 2 mps 709 mmHg 32%
    01:00 +28°C° 0 mm 2 mps 709 mmHg 31%
    02:00 +28°C° 0 mm 2 mps 709 mmHg 30%
    03:00 +27°C° 0 mm 2 mps 709 mmHg 31%
    04:00 +26°C° 0 mm 1 mps 709 mmHg 31%
    05:00 +26°C° 0 mm 1 mps 709 mmHg 31%
    06:00 +28°C° 0 mm 1 mps 710 mmHg 28%
    07:00 +29°C° 0 mm 1 mps 710 mmHg 25%
    08:00 +31°C° 0 mm 1 mps 711 mmHg 22%
    09:00 +33°C° 0 mm 1 mps 711 mmHg 21%
    10:00 +35°C° 0 mm 1 mps 711 mmHg 19%
    11:00 +37°C° 0 mm 1 mps 711 mmHg 17%
    12:00 +37°C° 0 mm 1 mps 710 mmHg 16%
    13:00 +39°C° 0 mm 1 mps 710 mmHg 15%
    14:00 +40°C° 0 mm 1 mps 709 mmHg 15%
    15:00 +39°C° 0 mm 2 mps 709 mmHg 15%
    16:00 +39°C° 0 mm 3 mps 708 mmHg 15%
    17:00 +40°C° 0 mm 5 mps 708 mmHg 16%
    18:00 +37°C° 0 mm 5 mps 708 mmHg 19%
    19:00 +35°C° 0 mm 5 mps 708 mmHg 22%
    20:00 +33°C° 0 mm 5 mps 709 mmHg 25%
    21:00 +32°C° 0 mm 4 mps 709 mmHg 26%
    22:00 +30°C° 0 mm 3 mps 709 mmHg 26%
    23:00 +29°C° 0 mm 2 mps 709 mmHg 26%

    Tomorrow, 2 April, Thursday

    Time Temperature Precipitation Wind Pressure Humidity
    00:00 +29°C° 0 mm 2 mps 708 mmHg 25%
    01:00 +29°C° 0 mm 2 mps 708 mmHg 24%
    02:00 +28°C° 0 mm 1 mps 707 mmHg 23%
    03:00 +28°C° 0 mm 1 mps 707 mmHg 24%
    04:00 +27°C° 0 mm 1 mps 707 mmHg 24%
    05:00 +27°C° 0 mm 1 mps 707 mmHg 25%
    06:00 +28°C° 0 mm 2 mps 708 mmHg 24%
    07:00 +30°C° 0 mm 3 mps 709 mmHg 23%
    08:00 +32°C° 0 mm 4 mps 709 mmHg 22%
    09:00 +34°C° 0 mm 4 mps 709 mmHg 20%
    10:00 +36°C° 0 mm 3 mps 710 mmHg 17%
    11:00 +38°C° 0 mm 3 mps 710 mmHg 14%
    12:00 +39°C° 0 mm 3 mps 709 mmHg 14%
    13:00 +40°C° 0 mm 2 mps 708 mmHg 13%
    14:00 +40°C° 0 mm 1 mps 708 mmHg 13%
    15:00 +40°C° 0 mm 2 mps 707 mmHg 13%
    16:00 +40°C° 0 mm 3 mps 707 mmHg 13%
    17:00 +40°C° 0 mm 3 mps 706 mmHg 14%
    18:00 +37°C° 0 mm 3 mps 707 mmHg 17%
    19:00 +35°C° 0 mm 4 mps 707 mmHg 21%
    20:00 +33°C° 0 mm 4 mps 708 mmHg 25%
    21:00 +32°C° 0 mm 4 mps 708 mmHg 26%
    22:00 +30°C° 0 mm 3 mps 708 mmHg 28%
    23:00 +30°C° 0 mm 3 mps 708 mmHg 29%

    Day after tomorrow, 3 April, Friday

    Time Temperature Precipitation Wind Pressure Humidity
    00:00 +29°C° 0 mm 3 mps 708 mmHg 30%
    01:00 +28°C° 0 mm 2 mps 708 mmHg 32%
    02:00 +28°C° 0 mm 2 mps 708 mmHg 33%
    03:00 +27°C° 0 mm 2 mps 707 mmHg 35%
    04:00 +27°C° 0 mm 2 mps 707 mmHg 36%
    05:00 +27°C° 0 mm 2 mps 707 mmHg 38%
    06:00 +28°C° 0 mm 2 mps 708 mmHg 35%
    07:00 +29°C° 0 mm 2 mps 709 mmHg 33%
    08:00 +30°C° 0 mm 2 mps 710 mmHg 30%
    09:00 +32°C° 0 mm 2 mps 710 mmHg 25%
    10:00 +36°C° 0 mm 2 mps 710 mmHg 19%
    11:00 +38°C° 0 mm 2 mps 710 mmHg 14%
    12:00 +39°C° 0 mm 2 mps 709 mmHg 13%
    13:00 +40°C° 0 mm 1 mps 709 mmHg 13%
    14:00 +41°C° 0 mm 1 mps 708 mmHg 12%
    15:00 +40°C° 0 mm 2 mps 708 mmHg 13%
    16:00 +40°C° 0 mm 3 mps 708 mmHg 14%
    17:00 +41°C° 0 mm 4 mps 707 mmHg 15%
    18:00 +37°C° 0 mm 4 mps 708 mmHg 21%
    19:00 +35°C° 0 mm 4 mps 708 mmHg 27%
    20:00 +33°C° 0 mm 4 mps 708 mmHg 33%
    21:00 +32°C° 0 mm 4 mps 709 mmHg 33%
    22:00 +30°C° 0 mm 3 mps 709 mmHg 33%
    23:00 +29°C° 0 mm 3 mps 709 mmHg 33%

    4 April, Saturday

    Time Temperature Precipitation Wind Pressure Humidity
    00:00 +29°C° 0 mm 3 mps 708 mmHg 34%
    01:00 +28°C° 0 mm 2 mps 708 mmHg 34%
    02:00 +28°C° 0 mm 2 mps 708 mmHg 34%
    03:00 +27°C° 0 mm 2 mps 707 mmHg 36%
    04:00 +26°C° 0 mm 2 mps 707 mmHg 38%
    05:00 +26°C° 0 mm 1 mps 707 mmHg 40%
    06:00 +27°C° 0 mm 1 mps 708 mmHg 35%
    07:00 +29°C° 0 mm 1 mps 709 mmHg 30%
    08:00 +31°C° 0 mm 1 mps 710 mmHg 25%
    09:00 +34°C° 0 mm 2 mps 710 mmHg 21%
    10:00 +36°C° 0 mm 2 mps 710 mmHg 16%
    11:00 +39°C° 0 mm 3 mps 710 mmHg 12%
    12:00 +40°C° 0 mm 2 mps 710 mmHg 11%
    13:00 +40°C° 0 mm 1 mps 709 mmHg 11%
    14:00 +41°C° 0 mm 1 mps 708 mmHg 11%
    15:00 +41°C° 0 mm 1 mps 708 mmHg 11%
    16:00 +41°C° 0 mm 2 mps 708 mmHg 12%
    17:00 +40°C° 0 mm 3 mps 708 mmHg 13%
    18:00 +38°C° 0 mm 3 mps 708 mmHg 21%
    19:00 +35°C° 0 mm 4 mps 708 mmHg 30%
    20:00 +33°C° 0 mm 4 mps 708 mmHg 38%
    21:00 +32°C° 0 mm 4 mps 708 mmHg 38%
    22:00 +30°C° 0 mm 3 mps 709 mmHg 37%
    23:00 +29°C° 0 mm 3 mps 709 mmHg 36%

    5 April, Sunday

    Time Temperature Precipitation Wind Pressure Humidity
    00:00 +29°C° 0 mm 2 mps 708 mmHg 36%
    01:00 +28°C° 0 mm 2 mps 708 mmHg 35%
    02:00 +28°C° 0 mm 2 mps 708 mmHg 34%
    03:00 +27°C° 0 mm 2 mps 708 mmHg 35%
    04:00 +27°C° 0 mm 1 mps 708 mmHg 36%
    05:00 +26°C° 0 mm 1 mps 708 mmHg 38%
    06:00 +28°C° 0 mm 1 mps 708 mmHg 34%
    07:00 +29°C° 0 mm 1 mps 709 mmHg 30%
    08:00 +31°C° 0 mm 1 mps 710 mmHg 27%
    09:00 +33°C° 0 mm 1 mps 710 mmHg 22%
    10:00 +36°C° 0 mm 2 mps 710 mmHg 18%
    11:00 +38°C° 0 mm 2 mps 711 mmHg 13%
    12:00 +39°C° 0 mm 2 mps 710 mmHg 12%
    13:00 +40°C° 0 mm 2 mps 710 mmHg 12%
    14:00 +41°C° 0 mm 2 mps 709 mmHg 11%
    15:00 +41°C° 0 mm 4 mps 709 mmHg 15%
    16:00 +40°C° 0 mm 5 mps 708 mmHg 19%
    17:00 +39°C° 0 mm 7 mps 708 mmHg 24%
    18:00 +36°C° 0 mm 6 mps 708 mmHg 31%
    19:00 +34°C° 0 mm 5 mps 709 mmHg 39%
    20:00 +30°C° 0 mm 4 mps 709 mmHg 46%
    21:00 +29°C° 0 mm 4 mps 709 mmHg 48%
    22:00 +29°C° 0 mm 3 mps 709 mmHg 50%
    23:00 +28°C° 0 mm 3 mps 710 mmHg 51%

    6 April, Monday

    Time Temperature Precipitation Wind Pressure Humidity
    00:00 +27°C° 0 mm 3 mps 709 mmHg 49%
    01:00 +27°C° 0 mm 2 mps 709 mmHg 46%
    02:00 +27°C° 0 mm 2 mps 708 mmHg 44%
    03:00 +27°C° 0 mm 2 mps 708 mmHg 43%
    04:00 +27°C° 0 mm 2 mps 708 mmHg 42%
    05:00 +27°C° 0 mm 2 mps 708 mmHg 41%
    06:00 +28°C° 0 mm 2 mps 709 mmHg 37%
    07:00 +29°C° 0 mm 1 mps 709 mmHg 33%
    08:00 +30°C° 0 mm 1 mps 710 mmHg 29%
    09:00 +31°C° 0 mm 1 mps 710 mmHg 26%
    10:00 +33°C° 0 mm 1 mps 710 mmHg 22%
    11:00 +35°C° 0 mm 1 mps 710 mmHg 18%
    12:00 +37°C° 0 mm 2 mps 710 mmHg 16%
    13:00 +38°C° 0 mm 2 mps 709 mmHg 15%
    14:00 +40°C° 0 mm 3 mps 709 mmHg 14%
    15:00 +40°C° 0 mm 4 mps 709 mmHg 15%
    16:00 +40°C° 0 mm 5 mps 708 mmHg 17%
    17:00 +40°C° 0 mm 5 mps 708 mmHg 19%
    18:00 +36°C° 0 mm 5 mps 708 mmHg 28%
    19:00 +34°C° 0 mm 5 mps 709 mmHg 37%
    20:00 +30°C° 0 mm 5 mps 709 mmHg 47%
    21:00 +29°C° 0 mm 4 mps 709 mmHg 50%
    22:00 +28°C° 0 mm 4 mps 709 mmHg 54%
    23:00 +27°C° 0 mm 3 mps 709 mmHg 57%
    Show more